Temp
11 11 11 11 11 11 11 12 12 12 13 13 13 13 13 13 14 14 14 17 17 17 17 17 17 17 17 16 15 13 16 15 18 16 20 17 18 17 16 17 16 15 16 16 14
11 11 11 11 11 11 11 12 13 13 12 13 13 13 13 13 13 13 16 16 16 17 17 16 15 16 15 16 15 15 14 17 17 16 18 18 17 18 18 16 16 16 15 14 13
11 11 11 11 11 11 11 11 12 13 13 13 13 13 13 13 13 16 16 16 16 16 16 17 17 17 17 17 16 14 16 15 17 16 17 17 16 16 16 16 15 16 16 12 11
11 11 11 11 11 11 11 11 11 12 13 13 13 13 13 13 18 15 15 15 16 16 16 16 16 17 16 17 16 17 15 16 17 17 16 17 15 16 14 18 17 14 15 12 11
12 11 12 11 11 11 11 11 11 11 12 13 13 13 13 13 14 15 15 15 16 16 16 15 16 15 17 16 16 16 16 15 16 15 15 15 14 15 14 14 13 13 13 13 11
12 11 11 11 11 11 11 11 11 12 12 12 13 13 13 15 15 15 15 15 15 15 15 16 16 16 16 16 16 16 15 15 14 15 15 15 15 14 16 14 15 13 12 12 11
12 11 11 11 11 11 11 11 11 12 12 12 13 12 12 14 15 15 15 15 15 15 15 16 16 17 16 16 15 15 16 15 14 15 15 13 16 13 15 15 14 14 13 12 11
12 11 11 11 11 11 11 11 11 11 12 12 12 12 12 14 14 14 15 14 15 15 16 16 16 15 16 15 14 16 15 17 16 15 15 16 18 18 15 15 16 14 13 12 12
11 11 11 11 11 11 11 11 11 11 12 12 12 12 13 13 13 14 14 14 15 15 16 16 15 13 15 14 14 13 17 16 16 15 15 15 16 17 15 16 15 14 14 12 12
11 11 11 11 11 11 11 11 11 11 11 11 11 12 12 13 13 13 14 15 14 14 15 14 11 12 11 13 16 17 16 15 15 16 15 15 15 16 15 13 14 14 11 11 11
11 11 11 11 11 11 10 11 10 10 10 12 13 14 12 12 13 13 14 14 14 14 13 13 13 12 12 13 15 15 16 16 15 15 15 14 14 16 17 13 12 11 11 10 10
10 11 11 11 11 10 10 9 12 14 13 10 12 12 13 13 12 12 13 13 14 13 12 12 12 13 13 12 14 15 15 14 14 14 14 13 15 16 14 14 14 14 14 12 10
9 10 11 11 10 10 10 11 13 13 12 12 10 11 12 13 13 11 12 12 13 11 11 12 15 12 14 13 13 13 14 14 16 14 13 12 16 18 17 15 15 14 13 12 10
8 8 10 11 10 9 9 12 13 13 10 13 11 12 12 12 13 11 12 13 12 12 10 12 13 14 13 14 13 16 13 15 15 15 16 13 17 17 17 15 15 14 12 12 9
6 8 9 10 10 9 12 12 12 12 13 12 11 11 11 12 10 11 12 13 12 11 12 13 13 13 14 14 13 14 13 13 14 13 14 14 14 17 15 19 19 14 12 11 9
5 7 8 9 9 9 10 9 11 11 13 9 10 10 11 12 11 11 12 13 12 12 12 12 11 12 13 10 12 10 12 10 9 11 9 14 14 17 19 19 19 16 12 11 8
5 6 7 8 9 8 9 8 9 12 10 8 9 10 11 10 11 11 11 11 11 11 9 12 12 11 11 12 12 12 12 8 10 8 12 10 12 17 17 17 18 18 13 10 8
5 5 7 8 8 8 9 9 11 8 9 9 9 9 10 11 11 11 10 10 11 10 8 12 11 10 10 12 12 11 13 10 12 11 12 11 13 17 15 15 13 14 14 10 8
4 5 6 8 8 7 8 9 11 9 9 9 10 9 10 11 10 11 10 9 10 10 12 9 11 8 9 9 10 11 11 11 7 1 9 13 14 16 15 15 13 15 13 11 9
4 4 7 9 8 7 8 10 9 10 9 10 11 9 9 9 10 9 9 10 11 10 12 10 10 7 9 9 9 11 11 12 8 12 11 11 13 17 16 15 13 14 14 11 9
4 5 7 9 7 7 9 9 9 9 10 10 9 9 10 9 9 9 10 11 11 10 11 7 10 7 8 9 10 10 10 11 11 10 10 10 15 13 16 14 13 12 12 12 10
4 5 6 7 7 5 8 6 9 9 9 10 10 10 9 9 9 9 10 11 10 9 10 10 9 5 8 7 8 9 12 12 13 10 6 8 13 14 15 14 13 13 12 11 11
4 5 6 7 7 7 6 8 9 9 9 9 10 11 11 9 9 10 10 9 9 9 10 10 7 5 7 8 8 9 9 11 9 9 7 10 12 13 14 13 12 12 10 10 9
4 5 5 6 7 7 7 8 8 9 9 9 9 9 8 9 9 9 10 10 9 10 11 10 5 8 10 11 8 6 8 9 9 6 9 10 10 15 13 11 11 11 11 10 10
3 2 2 6 6 8 7 7 8 8 8 9 8 8 8 7 6 8 10 9 9 9 9 10 8 4 4 9 10 11 7 7 7 10 10 10 8 12 13 11 10 11 10 10 7
3 3 1 2 8 6 7 7 7 7 8 8 8 7 8 8 9 7 9 9 10 9 9 8 6 5 7 5 6 7 8 7 7 6 7 7 10 13 13 11 12 11 10 11 10
3 2 2 3 5 6 6 6 8 8 7 8 7 7 8 8 8 8 8 8 8 8 8 9 6 5 5 3 5 8 7 8 7 8 9 8 13 13 12 12 13 13 12 11 10
Height
789 787 787 786 787 786 785 786 786 786 787 786 785 786 785 784 784 784 783 782 782 783 784 785 786 787 788 790 792 796 812 818 803 809 790 789 790 786 785 786 786 783 779 776 776
787 787 785 786 785 785 785 785 785 784 786 785 784 784 784 783 782 781 780 779 781 782 784 784 786 787 792 792 794 800 814 804 796 796 790 788 789 786 786 785 784 780 776 776 777
785 787 784 786 784 784 784 785 784 784 784 784 783 783 783 782 783 777 777 778 780 782 783 784 784 786 791 792 795 801 803 797 789 790 789 789 790 786 786 784 777 775 771 774 776
784 786 782 785 784 783 783 784 783 783 782 783 783 782 782 783 784 778 777 778 779 781 783 784 785 789 795 796 793 797 794 793 787 787 789 789 788 786 785 768 767 768 768 771 773
782 782 781 783 783 782 782 783 782 782 782 781 782 781 782 783 781 778 779 779 778 780 783 784 786 789 792 793 794 795 791 791 787 789 789 789 789 788 776 767 768 769 769 768 769
780 779 779 781 780 780 781 781 782 780 781 781 779 781 782 785 777 777 779 779 778 779 782 784 785 785 789 789 792 791 792 791 787 787 787 788 787 786 764 763 764 767 767 766 766
776 777 776 779 778 777 780 780 781 779 779 780 777 780 781 779 777 777 778 779 779 780 781 782 783 786 788 790 788 791 793 789 788 787 787 789 783 780 763 764 764 763 763 763 763
772 773 774 777 776 776 777 779 779 779 777 778 777 778 780 775 777 777 778 779 779 781 782 782 783 786 788 790 793 792 794 792 784 786 786 787 780 759 761 761 759 760 760 761 760
766 769 770 771 774 775 776 776 778 777 777 777 779 775 777 775 777 776 777 779 780 781 782 783 784 792 792 797 803 803 795 796 788 786 786 788 780 761 761 760 759 758 757 758 758
760 762 766 769 770 772 775 775 778 776 775 778 778 780 774 772 775 776 776 779 781 782 785 786 794 800 804 802 804 795 797 797 796 786 786 788 773 764 757 760 757 752 756 755 756
755 757 762 765 767 769 774 776 781 779 774 766 767 767 769 771 772 777 776 778 782 785 791 791 797 799 796 795 790 792 792 791 790 787 788 788 777 760 748 755 756 753 750 752 754
751 752 756 761 764 766 771 769 766 766 766 762 766 766 767 767 773 774 777 779 783 792 794 799 798 788 789 794 793 794 795 796 790 788 789 788 768 753 753 749 747 745 745 748 755
751 748 750 756 760 762 763 763 763 764 767 762 763 764 765 768 768 773 775 778 782 792 796 796 783 787 788 794 796 797 797 793 789 789 791 794 769 748 746 747 743 744 745 748 753
748 746 748 751 755 755 759 759 761 763 777 761 761 761 763 765 769 771 771 776 780 787 798 793 788 785 788 790 792 790 792 789 789 792 795 793 789 758 750 749 743 743 745 747 752
747 743 744 744 745 751 753 756 761 762 769 756 762 758 763 766 774 774 772 772 781 785 790 788 788 786 785 786 788 789 791 792 794 798 798 793 798 756 754 740 733 739 745 747 752
744 744 741 740 742 747 747 753 762 770 756 763 761 760 765 767 770 773 772 774 777 782 786 788 791 786 785 796 792 798 796 806 814 811 831 794 796 764 748 736 730 735 742 746 752
742 742 742 738 739 745 747 754 767 746 755 766 762 761 762 768 770 770 772 776 780 791 804 790 788 791 789 792 794 794 801 840 830 848 811 808 801 759 739 737 732 730 740 746 752
741 741 738 737 742 742 747 757 741 757 754 753 760 763 761 765 768 770 772 777 775 782 801 785 794 792 792 788 787 797 795 819 813 816 803 804 791 749 738 736 739 738 737 745 751
737 736 735 737 741 742 746 746 735 746 737 747 758 764 763 762 767 767 774 777 772 778 777 797 789 798 796 794 794 797 805 797 836 878 825 787 771 740 736 740 742 738 739 744 751
735 736 731 735 739 746 745 734 742 731 734 741 748 758 766 766 766 773 775 764 765 768 766 779 794 804 798 796 798 793 797 798 823 805 810 800 783 756 743 744 744 740 740 744 749
733 731 724 729 736 743 735 733 736 731 730 741 750 754 753 761 765 771 767 760 761 770 766 783 778 807 801 797 791 797 800 798 795 805 808 815 771 754 744 747 747 747 745 744 746
728 725 720 724 732 737 728 736 724 730 735 736 739 740 749 755 762 764 763 759 761 766 770 769 784 815 799 799 798 794 782 782 784 802 830 817 776 745 744 744 746 744 747 747 746
719 718 716 718 720 725 727 724 723 728 733 737 736 734 737 749 760 757 759 760 762 762 766 768 790 821 805 801 799 794 790 784 792 793 816 801 777 746 745 747 748 747 750 751 749
714 714 714 711 710 715 718 720 725 726 729 732 738 740 746 753 751 758 757 761 760 761 757 762 792 786 777 767 788 801 794 788 788 816 793 781 776 743 742 751 747 746 743 744 745
706 706 699 698 703 705 716 721 721 727 728 729 737 737 744 760 767 762 757 761 762 763 762 762 781 801 801 779 774 772 792 795 799 780 779 773 784 755 751 751 746 745 742 744 744
694 697 702 706 694 708 709 713 718 723 725 729 734 741 741 748 744 762 756 762 759 764 763 768 791 796 789 795 791 788 780 785 787 793 787 787 766 750 746 748 745 742 744 740 738
682 688 691 696 694 701 701 709 707 713 725 726 730 738 741 744 746 747 751 756 761 765 769 768 784 795 803 811 798 783 775 769 775 775 771 780 746 745 744 746 745 740 738 739 736
Wind_Speed
7 5 4 3 3 3 3 4 4 5 6 5 5 6 6 7 7 4 5 3 5 6 3 6 5 5 3 3 3 3 3 2 4 6 3 2 3 2 0 1 2 5 4 1 8
8 7 5 4 3 3 3 3 4 4 6 7 6 6 7 9 7 6 4 6 6 4 4 8 5 6 2 2 1 4 3 8 4 4 3 2 4 2 2 3 5 5 5 3 16
10 10 6 6 4 3 3 4 4 4 5 7 6 6 7 8 3 1 5 7 6 3 5 5 8 3 3 2 3 4 5 4 3 5 2 2 3 2 3 6 9 7 6 6 12
11 11 7 7 6 4 4 4 4 5 4 6 6 5 6 2 1 2 3 7 6 4 7 6 3 4 4 4 3 2 5 4 3 1 1 3 4 5 7 7 2 8 3 5 9
13 11 9 8 7 5 4 4 4 5 5 3 5 4 1 1 5 1 2 4 5 6 5 3 4 5 4 4 4 4 3 3 4 4 5 2 7 6 12 12 9 7 5 8 8
15 12 10 9 8 6 6 5 5 4 5 5 3 2 2 1 1 4 1 3 5 6 5 3 5 4 3 3 5 2 3 6 6 2 3 4 4 1 6 1 3 4 8 9 8
17 14 11 10 8 6 6 6 6 5 4 5 0 1 2 7 2 3 3 2 5 4 4 3 4 2 2 2 0 0 5 6 2 1 3 3 6 10 7 5 8 7 6 6 9
19 16 14 11 8 7 6 7 6 5 4 2 2 3 5 2 4 4 5 4 5 4 4 4 3 3 1 1 5 1 3 3 0 3 1 1 7 6 3 3 9 7 6 6 5
22 19 15 12 10 8 6 6 6 5 2 3 2 4 4 2 3 5 5 4 6 5 4 5 4 3 3 4 4 5 3 2 7 1 1 2 7 6 2 2 9 9 8 6 6
26 19 18 15 11 8 6 4 5 3 4 4 2 2 1 4 3 6 6 9 3 4 3 4 4 3 2 3 5 5 4 3 4 1 1 4 19 14 14 11 13 11 7 7 7
26 21 21 17 13 10 6 4 2 2 4 7 4 2 4 5 6 2 5 6 3 4 4 2 3 7 9 5 2 4 2 2 3 1 3 5 13 17 14 7 8 8 6 5 6
5 21 22 19 16 14 10 3 5 2 2 6 1 2 2 6 4 2 7 5 4 4 4 4 7 4 4 4 3 1 1 5 4 1 1 5 19 15 7 4 4 3 4 3 3
8 6 24 22 20 17 14 11 5 4 1 3 4 4 4 7 4 8 8 5 4 6 6 6 2 4 5 3 4 3 4 3 4 4 1 6 9 5 3 3 3 3 1 0 5
10 6 5 23 18 12 9 22 10 6 3 5 4 3 3 4 3 0 7 4 2 9 7 5 2 4 3 4 5 2 3 2 0 2 3 3 4 5 5 8 5 5 5 4 4
11 9 7 25 8 10 5 17 15 2 2 3 4 5 3 4 6 3 3 2 7 6 6 5 4 4 3 3 6 4 2 3 2 3 2 1 3 8 4 6 4 7 7 5 5
10 8 9 3 8 8 12 19 1 4 9 3 4 5 6 2 2 3 3 3 4 5 2 0 1 1 2 2 2 6 4 6 4 2 2 2 4 8 4 4 1 1 6 5 6
11 9 8 3 2 15 26 9 3 4 4 3 4 6 4 5 4 4 6 6 5 5 3 0 2 0 2 5 4 3 5 3 4 3 5 3 2 11 5 5 3 2 6 6 6
9 12 10 7 6 27 15 3 6 3 5 3 3 4 6 5 2 4 6 6 3 3 3 6 4 6 2 2 4 5 4 5 6 3 3 2 6 6 5 2 6 3 2 6 7
8 10 5 10 10 28 3 2 5 7 7 10 3 4 3 2 4 3 6 6 9 10 7 5 2 2 3 2 2 4 3 2 6 1 3 3 7 10 2 5 7 4 1 6 7
5 3 6 16 21 13 1 5 6 3 7 5 7 4 6 6 5 6 8 4 4 10 2 5 3 2 1 2 2 3 2 3 2 1 3 4 5 6 7 8 9 5 4 5 5
5 3 8 22 23 4 8 8 5 4 5 7 5 5 5 7 7 5 6 2 3 3 2 4 3 3 0 5 7 3 2 2 2 3 4 1 5 6 3 4 6 7 7 5 5
3 4 15 31 6 2 11 6 5 5 2 2 4 4 6 6 5 5 8 3 4 7 8 5 4 3 5 1 1 1 2 5 3 5 0 2 5 4 4 4 6 7 7 6 3
3 2 12 12 9 8 3 4 4 5 6 6 3 2 2 6 4 4 5 2 4 7 7 6 1 3 6 3 2 4 4 3 3 2 6 5 5 4 1 5 6 7 7 7 6
3 5 3 4 4 9 7 8 7 1 5 4 5 4 5 3 3 5 3 1 1 4 5 5 3 5 6 4 4 3 3 4 3 3 4 6 5 12 4 6 9 8 6 5 5
4 5 4 11 12 12 9 8 12 9 2 5 3 5 7 4 2 4 3 2 2 3 2 4 4 2 1 2 2 3 5 7 7 6 5 2 6 7 8 7 10 7 7 9 7
6 3 1 2 15 14 16 15 13 7 8 6 7 8 7 6 6 7 6 1 2 2 3 3 2 2 3 2 1 4 8 8 7 2 7 6 18 8 13 9 12 9 8 10 9
8 2 3 8 8 17 12 9 14 13 2 5 9 7 6 7 5 6 6 6 5 5 3 3 5 3 3 2 1 7 8 13 5 3 6 6 10 6 7 5 3 7 8 9 9
Wind_Direction
247 237 243 260 278 307 324 323 335 335 328 330 322 314 314 313 306 256 228 204 188 178 171 149 138 144 122 93 90 138 73 231 243 169 247 180 215 197 89 262 233 213 209 223 159
245 243 239 242 255 283 306 315 328 338 335 338 338 327 323 325 308 231 235 187 184 179 173 166 147 142 61 107 60 103 138 218 215 205 239 261 188 262 307 224 244 271 247 174 170
241 246 240 251 245 263 291 308 321 329 334 335 339 332 328 328 301 245 188 184 181 185 164 162 142 129 116 127 189 167 201 211 251 231 227 265 281 235 205 263 224 210 237 176 186
241 243 237 248 251 252 273 290 317 324 329 333 334 335 334 352 211 10 157 184 182 178 155 141 111 123 141 184 169 201 240 218 262 225 171 247 307 278 208 241 185 218 217 171 194
238 238 239 240 249 253 257 278 294 316 319 326 331 337 28 8 256 149 143 166 168 164 178 152 141 141 185 183 140 201 247 185 263 279 248 310 251 244 262 254 259 242 235 219 213
239 235 234 240 241 247 260 267 282 299 308 314 334 335 117 279 146 165 196 164 150 148 156 160 190 194 134 181 170 184 281 266 278 228 240 218 266 54 256 230 231 205 244 235 224
236 233 230 236 241 244 257 266 277 292 299 302 301 120 104 227 186 157 154 156 152 152 141 159 143 107 129 173 73 36 312 311 217 258 234 179 270 234 243 288 282 279 265 246 235
230 231 228 231 234 245 252 265 268 279 295 258 159 132 240 191 185 159 146 130 134 121 121 140 114 104 82 134 20 20 66 340 302 146 318 311 260 271 354 180 269 277 275 264 255
227 227 228 225 230 236 247 266 268 265 216 163 167 138 263 145 194 183 167 151 130 115 93 108 72 89 33 98 2 359 249 219 318 170 14 160 277 266 332 262 280 275 268 264 265
225 221 227 223 220 227 241 267 261 189 158 143 126 44 188 175 155 150 138 142 119 114 60 57 57 80 36 116 223 204 219 242 265 311 150 257 267 269 275 261 262 277 279 266 255
231 218 223 223 215 215 209 149 65 309 218 188 185 150 132 129 130 143 144 119 92 57 147 35 122 212 200 195 93 117 164 249 264 301 295 243 281 287 289 247 272 279 291 282 246
273 224 223 219 213 206 197 194 218 169 282 212 161 294 160 169 114 163 164 127 143 161 121 53 235 192 135 171 203 104 317 274 269 225 213 336 292 278 292 245 207 259 302 286 137
301 238 221 219 206 198 201 210 210 183 108 267 180 170 190 159 188 185 148 145 136 144 190 171 166 91 141 147 150 204 202 217 237 323 182 321 291 324 275 276 234 225 221 150 180
300 289 228 220 181 186 209 221 198 185 75 227 204 214 122 153 186 75 170 140 109 187 162 241 296 143 157 195 147 254 212 177 160 51 253 1 283 290 304 297 252 234 220 214 162
290 299 287 204 170 177 202 208 183 152 226 142 152 131 124 161 133 352 172 79 160 162 130 233 168 162 157 220 173 221 76 106 70 105 4 320 108 272 337 298 260 222 218 209 170
292 288 306 150 167 180 164 146 165 121 232 147 128 145 125 119 100 131 131 57 126 107 50 218 297 140 138 77 45 149 76 48 50 67 40 312 141 283 238 230 227 131 208 193 156
289 292 270 142 162 152 135 103 186 203 346 194 166 157 142 152 130 156 158 163 157 120 204 295 209 64 131 87 30 78 74 338 354 5 217 343 88 246 282 262 249 119 203 192 163
277 293 262 215 207 153 140 133 234 212 168 113 91 102 158 152 174 143 127 164 233 99 120 160 278 174 153 138 181 177 164 162 211 209 253 28 225 249 213 315 255 280 95 164 175
280 289 244 211 190 154 141 168 198 212 142 129 85 117 189 162 130 134 182 190 194 181 173 140 258 317 42 82 86 195 197 148 103 38 52 231 283 297 257 298 279 300 159 208 191
242 268 228 203 186 172 107 194 230 167 110 116 160 177 162 174 141 185 175 196 214 192 136 202 89 340 356 147 66 163 147 91 353 187 253 298 287 238 346 338 347 312 298 268 184
189 200 189 185 154 179 211 220 180 191 118 151 184 143 155 165 160 189 185 226 193 167 139 138 114 299 104 213 171 136 195 51 156 145 174 182 260 209 313 349 358 354 320 291 213
210 195 174 153 166 149 218 185 140 136 158 142 136 120 149 146 142 195 201 239 175 153 167 188 122 147 208 314 341 351 224 164 158 238 111 145 277 186 211 102 63 21 358 338 272
211 182 187 174 191 211 192 147 162 138 162 163 124 103 108 146 132 186 183 130 183 157 159 186 212 67 354 4 9 218 202 184 103 89 197 154 250 234 184 49 8 39 14 352 339
182 170 204 203 214 177 163 184 184 129 152 135 119 94 95 95 25 165 143 144 137 207 159 98 103 155 184 170 130 176 195 201 154 133 184 223 272 304 293 1 342 343 318 305 299
178 219 196 201 199 206 158 169 171 188 200 151 24 155 150 131 80 141 124 108 45 344 76 132 171 136 279 73 137 180 172 185 188 206 209 231 223 247 285 310 295 305 324 314 307
167 174 171 141 177 188 194 203 190 157 156 183 148 174 175 157 173 185 141 119 128 38 70 26 155 117 342 1 153 238 224 207 218 217 258 276 273 253 255 262 281 319 308 306 311
160 154 133 175 164 184 200 164 185 159 203 186 154 131 141 161 119 110 100 120 146 148 147 110 140 101 258 318 1 302 219 205 174 180 175 206 254 265 259 265 295 301 300 298 296